Find Local Weather

World > North America > United States > California

San Diego, California Regional Weather

Lat: 32.72N, Lon: 117.16W
Wx Zone: CAZ043
Warning FLW WEATHER ALERT - (More Info. Click Here) Warning
Feedback
Expires:201805241600;;458843
ASUS46 KSGX 241511
RWRSGX

SAN DIEGO HOURLY WEATHER ROUNDUP
NATIONAL WEATHER SERVICE SAN DIEGO CA
800 AM PDT THU MAY 24 2018

NOTE: "FAIR" INDICATES FEW OR NO CLOUDS BELOW 12,000 FEET WITH NO 
SIGNIFICANT WEATHER AND/OR OBSTRUCTIONS TO VISIBILITY.


CAZ042-043-060-061-PZZ750-775-241600-

GREATER SAN DIEGO AREA
  
CITY           SKY/WX    TMP DP  RH WIND       PRES   REMARKS
SAN DIEGO AP   CLOUDY    61  53  75 CALM      30.10R                  
NATIONAL CITY    N/A     60  57  88 CALM      30.09R                  
CHULA VISTA      N/A     59  56  91 W3        30.00R                  
IMPERIAL BEACH CLOUDY    60  55  83 W5        30.09R                  
BROWN FIELD    CLOUDY    58  56  93 W3        30.08R                  
MIRAMAR MCAS   CLOUDY    61  54  77 W3        30.08R                  
MONTGOMERY FLD CLOUDY    59  55  87 CALM      30.08R                  
GILLESPIE FLD  CLOUDY    59  55  88 CALM      30.08R                  

$$

NORTH SAN DIEGO COUNTY
  
CITY           SKY/WX    TMP DP  RH WIND       PRES   REMARKS
CAMP PENDLETON CLOUDY    57  57 100 CALM      30.08R                  
OCEANSIDE AP   CLOUDY    59  56  89 W3        30.08R                  
OCEANSIDE HBR    N/A     59  57  92 NE5       30.10R                  
VISTA            N/A     57  52  83 CALM      30.05R                  
CARLSBAD       CLOUDY    57  57 100 W3        30.07S FOG              
DEL MAR          N/A     58  56  92 CALM      30.09R                  
LA JOLLA SCRIP   N/A     58  56  92 CALM      30.08R                  
FALLBROOK        N/A     58  58 100 CALM      30.09R                  
ESCONDIDO        N/A     58  56  92 SW3       30.08R                  
SAN MARCOS       N/A     56  54  92 CALM      30.12R                  
POWAY            N/A     57  55  90 CALM      30.07R                  

$$

EAST SAN DIEGO COUNTY
  
CITY           SKY/WX    TMP DP  RH WIND       PRES   REMARKS
RAMONA         CLOUDY    56  56 100 W3        30.08R                  
LA MESA          N/A     57  55  95 CALM      30.02R                  
JAMUL            N/A     56  55  95 CALM      30.07R                  
CAMPO            N/A     54  50  86 SW3       30.05R                  

$$

ORANGE COUNTY AND THE LOS ANGELES BASIN
  
CITY           SKY/WX    TMP DP  RH WIND       PRES   REMARKS
JOHN WAYNE AP  LGT RAIN  59  57  93 SW6       30.08R FOG              
LAGUNA BEACH     N/A     57  57  99 CALM      30.04R                  
LAKE FOREST FR   N/A     56  53  90 CALM      29.96R                  
HUNTINGTON BCH   N/A     59  57  94 CALM      30.09R                  
LOS ALAMITOS   CLOUDY    59  57  92 W3        30.08R FOG              
FULLERTON      LGT RAIN  60  58  92 CALM      30.08R FOG              
LONG BEACH     CLOUDY    60  55  83 CALM      30.08R                  
L.A. AP        CLOUDY    59  55  87 CALM      30.08R FOG              
L.A. DOWNTOWN  CLOUDY    60  57  89 VRB3      30.08R FOG              

$$

THE INLAND EMPIRE
  
CITY           SKY/WX    TMP DP  RH WIND       PRES   REMARKS
CORONA         CLOUDY    59  55  87 W7        30.09R                  
CHINO          CLOUDY    60  55  83 SW3       30.09R HAZE             
ONTARIO        DRIZZLE   57  54  89 W6        30.08R FOG              
RIVERSIDE AP   CLOUDY    58  55  90 W3        30.08R                  
MARCH ARB      CLOUDY    57  57 100 CALM      30.08R                  
HORSETHIEF CYN   N/A     56  52  88 CALM      30.06R                  
PERRIS           N/A     57  56  96 SE1         N/A                   
HEMET EAST       N/A     55  52  89 CALM      30.01R                  
FRENCH VALLEY  CLOUDY    57  54  88 SW6       30.09R                  
TEMECULA         N/A     58  56  95 CALM      30.13R                  

$$

SAN BERNARDINO AND RIVERSIDE COUNTY MOUNTAINS
  
CITY           SKY/WX    TMP DP  RH WIND       PRES   REMARKS
BIG BEAR AP    SUNNY     50  34  53 CALM      30.16S                  
ANGELUS OAKS     N/A     52  37  56 CALM      29.87R                  

$$

SOUTHERN DESERT INCLUDING THE COACHELLA VALLEY
  
CITY           SKY/WX    TMP DP  RH WIND       PRES   REMARKS
PALM SPRINGS   SUNNY     71  53  52 CALM      29.97R                  
THOUSAND PALMS   N/A     70  53  53 NW9       29.92R                  
PALM DESERT      N/A     71  55  55 NE6       30.83S                  
THERMAL        SUNNY     75  53  46 NW3       29.92R                  
BLYTHE         SUNNY     75  44  33 E3        29.94R                  
IMPERIAL AP    SUNNY     72  56  57 E5        29.92R                  
EL CENTRO NAS  SUNNY     73  57  57 S5        29.93R                  
YUMA AZ        MOSUNNY   75  45  34 CALM      29.94R                  
MEXICALI       SUNNY     72  54  53 SE8       29.93R                  

$$

UPPER DESERT
  
CITY           SKY/WX    TMP DP  RH WIND       PRES   REMARKS
VICTORVILLE AP SUNNY    N/A N/A N/A E6        30.02R                  
HESPERIA         N/A     60  49  67 SW3       29.95R                  
APPLE VALLEY     N/A     62  49  61 W3        29.96R                  
PALMDALE       SUNNY     61  46  57 SW13      30.02R                  
LANCASTER      SUNNY     60  48  64 S3        30.02R                  
EDWARDS AFB    MOSUNNY   61  47  60 SW13      30.00R                  
DAGGETT        SUNNY     68  48  48 W10       29.99R                  
29 PALMS N     SUNNY     71  39  31 NW5       30.05R                  
NEEDLES        SUNNY     81  37  20 NE3       29.95R                  

$$

REGIONAL REPORTS
  
CITY           SKY/WX    TMP DP  RH WIND       PRES   REMARKS
SANTA BARBARA  CLOUDY    58  53  84 CALM      30.07R                  
SANDBERG       FOG       46  46 100 S10       30.09R VSB 1/4          
LAS VEGAS NV   SUNNY     77  37  23 N3        30.00R                  
PHOENIX AZ     MOSUNNY   79  35  20 E6        29.97R                  
TIJUANA        CLOUDY    57  54  88 CALM      30.10R                  
ENSENADA NW      N/A     60  32  34 CALM      30.01S                  

$$

OFFSHORE ISLANDS
  
CITY           SKY/WX    TMP DP  RH WIND       PRES   REMARKS
CATALINA ARPT  CLOUDY    52  52 100 S5        30.08R                  
SAN CLEMENTE I CLOUDY    61  51  70 S5        30.10R                  
SAN NICOLAS IS CLOUDY    57  48  72 SW8       30.08R                  

$$

MARINE AND OFFSHORE BUOY REPORTS
  
STATION/POSITION SKY/WX   TEMP    WIND        PRES    VSBY  SWELL
                          AIR SEA DIR/SP/G                  HT/PER/DIR
                          (F)     (DEG/KT/KT) (MB)    (MI)  (FT/S/D)
TANNER BANKS               57 60              1018.6R
S CLEMENTE BASIN           58 62  270/  6/  6 1018.8R         5/180/16
SAN NICOLAS IS.               57                N/A           5/200/14
SO. S. ROSA ISLA           55 57   20/  2/  4 1019.9R         5/280/14
W. S. BARBARA CH              56  250/  8/  8 1017.9R         5/210/15
M. S. BARBARA CH           56 56  250/  6/  8 1018.5R         2/220/13
S. MONICA BASIN                   250/  6/  8 1018.0R         3/170/15
S PEDRO CHANNEL               62                N/A           2/180/15
CMP PENDLETON NS              64                N/A           3/220/15
OCEANSIDE OFFSHR              63                N/A           3/190/15
TORREY PINES OTR              64                N/A           3/200/15
SAN DIEGO BAY                 65              1018.2R
POINT LOMA SOUTH              64                N/A           3/180/15

$$

  

SKY/WX - Weather  TMP - Temperature  DP - Dewpoint  RH - Relative Humidity
WIND - Wind Direction/Speed PRES - Barometric Pressure